Simultaneous Nadir Overpasses (SNOs) Predictions

Prediction of SNOs between NOAA-19 and TERRA Satellite Orbit:

Table of predicted SNOs for the next 14.0 days since TLE Epoch: 6/26/2021
Index Date (NOAA-19) Time (NOAA-19) Lat,Lon (NOAA-19) SZA (NOAA-19 ) Date (TERRA) Time (TERRA) Lat,Lon (TERRA) SZA (TERRA ) Distance(km) Time Diff (sec)
1 06/26/2021 20:20:27 80.29, -91.57 58.60 06/26/2021 20:20:41 80.28, -91.72 58.57 3.32 14
2 06/26/2021 21:11:17 -80.12, 78.31 121.28 06/26/2021 21:10:09 -80.24, 75.59 121.49 53.18 68
3 06/29/2021 01:53:35 -80.31, 4.98 121.32 06/29/2021 01:54:23 -80.29, 4.93 121.32 2.30 48
4 06/29/2021 02:44:36 80.30, 172.43 58.70 06/29/2021 02:43:49 80.29, 172.58 58.68 3.01 47
5 07/01/2021 08:17:44 -80.30, -90.85 121.18 07/01/2021 08:17:31 -80.30, -90.76 121.18 1.64 13
6 07/03/2021 13:50:54 80.32, 5.71 58.99 07/03/2021 13:51:12 80.30, 5.85 59.00 2.78 18
7 07/03/2021 14:41:53 -80.30, 173.29 121.00 07/03/2021 14:40:40 -80.27, 173.21 121.06 2.78 73
8 07/05/2021 19:24:03 -80.32, 102.47 120.82 07/05/2021 19:24:54 -80.31, 102.50 120.80 0.77 51
9 07/05/2021 20:15:02 80.30, -90.05 59.20 07/05/2021 20:14:20 80.31, -89.91 59.20 2.70 42



Historial Predications of SNOs between NOAA-19 and TERRA
